Estación meteorológica de Els Cortals - St. Hilari Sacalm (La Selva, Guilleries)

Consulta los datos en tiempo real de la estación meteorológica de Els Cortals - St. Hilari Sacalm





Hora UTC 13:10
Temperatura 11.8 ºC
Humedad 73.0 %
Presión 1005.3 hPa
Pluja 0.8 mm
Velocidad viento 0.0 km/h
Dirección viento ENE

Datos diarios 2026-05-05



Hora UTC (invierno +1h; verano +2h)
Temperatura (ºC) Humedad (%) Presión (hPa) Velocidad viento (km/h) Precipitación (mm)
Hora UTC Aire Humedad Presión Vel. Dir. Vel. Max Dir. Intent. máx 5 min.
00:05 9.3 81.0 1005.2 11.3 W 11.3 0.0
00:10 9.2 81.0 1005.2 17.7 W 22.5 0.0
00:15 9.1 81.0 1005.2 14.5 WSW 17.7 0.0
00:20 8.9 80.0 1005.0 9.7 W 17.7 0.0
00:25 8.8 80.0 1005.1 9.7 WSW 19.3 0.0
00:30 8.8 80.0 1005.0 9.7 WSW 17.7 0.0
00:35 8.7 79.0 1005.0 12.9 W 20.9 0.0
00:40 8.6 79.0 1004.9 14.5 WSW 24.1 0.0
00:45 8.6 78.0 1004.9 12.9 WSW 24.1 0.0
00:50 8.5 78.0 1004.9 12.9 W 20.9 0.0
00:55 8.4 78.0 1004.9 9.7 W 17.7 0.0
01:00 8.4 77.0 1004.8 16.1 W 19.3 0.0
01:05 8.4 77.0 1004.7 8.0 W 19.3 0.0
01:10 8.3 77.0 1004.8 11.3 W 17.7 0.0
01:15 8.3 77.0 1004.9 11.3 WSW 20.9 0.0
01:20 8.3 77.0 1005.0 9.7 WSW 20.9 0.0
01:25 8.3 78.0 1004.9 11.3 NW 17.7 0.0
01:30 8.3 78.0 1005.0 9.7 W 16.1 0.0
01:35 8.3 78.0 1005.1 12.9 WSW 16.1 0.0
01:40 8.3 79.0 1004.9 11.3 W 20.9 0.0
01:45 8.4 80.0 1004.9 9.7 WSW 17.7 0.0
01:50 8.3 80.0 1004.8 9.7 W 14.5 0.0
01:55 8.4 80.0 1004.9 11.3 WSW 17.7 0.0
02:00 8.3 81.0 1005.0 12.9 WSW 17.7 0.0
02:05 8.3 81.0 1005.0 11.3 WNW 17.7 0.0
02:10 8.2 81.0 1005.0 9.7 W 17.7 0.0
02:15 8.2 80.0 1004.9 9.7 WNW 16.1 0.0
02:20 8.2 80.0 1004.9 8.0 W 16.1 0.0
02:25 8.1 80.0 1004.8 11.3 W 16.1 0.0
02:30 8.1 80.0 1004.9 8.0 W 16.1 0.0
02:35 8.1 80.0 1004.9 11.3 W 16.1 0.0
02:40 8.0 80.0 1004.7 9.7 W 17.7 0.0
02:45 8.0 80.0 1004.7 8.0 WSW 17.7 0.0
02:50 7.9 80.0 1004.8 9.7 WSW 17.7 0.0
02:55 7.9 80.0 1004.8 8.0 WSW 17.7 0.0
03:00 7.9 80.0 1004.8 11.3 WSW 14.5 0.0
03:05 7.9 80.0 1004.7 16.1 WNW 16.1 0.0
03:10 8.0 81.0 1004.7 11.3 WNW 16.1 0.0
03:15 8.1 81.0 1004.7 9.7 WNW 16.1 0.0
03:20 8.2 82.0 1004.7 11.3 W 16.1 0.0
03:25 8.3 83.0 1004.6 9.7 W 14.5 0.0
03:30 8.4 83.0 1004.7 12.9 WNW 14.5 0.0
03:35 8.6 83.0 1004.7 9.7 W 14.5 0.0
03:40 8.6 83.0 1004.7 8.0 W 11.3 0.0
03:45 8.7 83.0 1004.6 8.0 WSW 12.9 0.0
03:50 8.7 83.0 1004.6 6.4 W 12.9 0.0
03:55 8.7 83.0 1004.5 8.0 W 12.9 0.0
04:00 8.8 82.0 1004.5 8.0 W 12.9 0.0
04:05 8.8 82.0 1004.5 6.4 W 11.3 0.0
04:10 8.8 82.0 1004.6 3.2 W 11.3 0.0
04:15 8.7 82.0 1004.6 4.8 WSW 8.0 0.0
04:20 8.6 82.0 1004.6 8.0 WSW 8.0 0.0
04:25 8.6 82.0 1004.6 4.8 W 8.0 0.0
04:30 8.4 82.0 1004.8 6.4 W 8.0 0.0
04:35 8.3 83.0 1004.8 0.0 NW 8.0 0.0
04:40 8.1 83.0 1004.7 0.0 NW 6.4 0.0
04:45 7.9 83.0 1004.8 0.0 NW 3.2 0.0
04:50 7.8 83.0 1004.8 0.0 NW 1.6 0.0
04:55 7.8 83.0 1004.7 3.2 NW 4.8 0.0
05:00 7.9 83.0 1004.8 0.0 W 8.0 0.0
05:05 8.1 83.0 1004.7 0.0 W 8.0 0.0
05:10 8.2 83.0 1004.8 0.0 W 0.0 0.0
05:15 8.3 83.0 1004.9 0.0 W 0.0 0.0
05:20 8.3 83.0 1004.9 0.0 W 0.0 0.0
05:25 8.5 84.0 1004.9 0.0 W 0.0 0.0
05:30 8.7 83.0 1004.9 0.0 W 0.0 0.0
05:35 8.8 83.0 1004.9 0.0 W 0.0 0.0
05:40 9.2 82.0 1005.2 0.0 W 0.0 0.0
05:45 9.5 81.0 1005.1 0.0 W 1.6 0.0
05:50 9.9 81.0 1005.2 0.0 W 1.6 0.0
05:55 10.1 81.0 1005.3 3.2 W 3.2 0.0
06:00 10.3 79.0 1005.1 3.2 W 8.0 0.0
06:05 10.4 77.0 1005.3 0.0 WSW 12.9 0.0
06:10 10.7 77.0 1005.3 3.2 W 12.9 0.0
06:15 10.8 76.0 1005.1 8.0 WSW 12.9 0.0
06:20 10.9 76.0 1005.4 12.9 WNW 12.9 0.0
06:25 11.1 76.0 1005.4 8.0 W 12.9 0.0
06:30 11.3 75.0 1005.5 8.0 WSW 12.9 0.0
06:35 11.3 75.0 1005.6 12.9 W 12.9 0.0
06:40 11.3 75.0 1005.3 11.3 WSW 16.1 0.0
06:45 11.3 73.0 1005.6 9.7 WSW 17.7 0.0
06:50 11.4 74.0 1005.6 9.7 W 17.7 0.0
06:55 11.5 73.0 1005.4 11.3 WSW 16.1 0.0
07:00 11.6 73.0 1005.5 14.5 W 17.7 0.0
07:05 11.8 73.0 1005.3 8.0 W 17.7 0.0
07:10 11.9 72.0 1005.4 6.4 W 16.1 0.0
07:15 12.0 71.0 1005.4 8.0 W 14.5 0.0
07:20 12.1 71.0 1005.3 6.4 WSW 14.5 0.0
07:25 12.3 71.0 1005.2 3.2 WSW 14.5 0.0
07:30 12.4 73.0 1005.3 6.4 WSW 14.5 0.0
07:35 12.7 71.0 1005.5 14.5 W 14.5 0.0
07:40 12.7 69.0 1005.3 6.4 SW 17.7 0.0
07:45 12.8 70.0 1005.2 1.6 SW 17.7 0.0
07:50 13.1 69.0 1005.4 4.8 WSW 14.5 0.0
07:55 13.3 69.0 1005.3 8.0 W 11.3 0.0
08:00 13.5 68.0 1005.4 8.0 SSW 11.3 0.0
08:05 13.4 67.0 1005.5 6.4 S 12.9 0.0
08:10 13.4 68.0 1005.5 1.6 SSW 12.9 0.0
08:15 13.5 68.0 1005.6 0.0 W 12.9 0.0
08:20 13.7 68.0 1005.5 0.0 S 9.7 0.0
08:25 13.8 67.0 1005.6 0.0 W 0.0 0.0
08:30 13.8 67.0 1005.4 0.0 SW 0.0 0.0
08:35 14.2 67.0 1005.6 0.0 SW 0.0 0.0
08:40 14.7 73.0 1005.4 0.0 SW 0.0 0.0
08:45 14.7 71.0 1005.7 0.0 SSW 0.0 0.0
08:50 14.6 76.0 1005.4 0.0 S 0.0 0.0
08:55 14.7 77.0 1005.4 0.0 NNE 0.0 0.0
09:00 14.3 73.0 1005.4 0.0 W 0.0 0.0
09:05 14.3 70.0 1005.4 0.0 W 0.0 0.0
09:10 13.9 68.0 1005.5 0.0 S 0.0 0.0
09:15 13.9 70.0 1005.5 0.0 SSW 0.0 0.0
09:20 13.9 75.0 1005.5 0.0 ENE 0.0 0.0
09:25 13.7 76.0 1005.8 0.0 W 0.0 0.0
09:30 13.4 73.0 1005.7 0.0 SW 0.0 0.0
09:35 13.5 80.0 1005.9 0.0 SW 0.0 0.0
09:40 13.3 81.0 1006.0 0.0 SW 0.0 0.0
09:45 13.1 82.0 1006.0 0.0 SW 0.0 0.0
09:50 12.7 82.0 1006.0 0.0 SSW 0.0 0.0
09:55 12.6 82.0 1006.1 0.0 ESE 0.0 0.0
10:00 12.1 82.0 1005.6 0.0 E 0.0 0.0
10:05 11.9 80.0 1005.5 0.0 NE 0.0 0.0
10:10 11.8 78.0 1005.5 0.0 E 0.0 0.0
10:15 11.7 77.0 1005.4 0.0 E 0.0 0.0
10:20 11.8 75.0 1005.4 0.0 E 0.0 0.0
10:25 12.1 75.0 1005.7 0.0 ENE 0.0 0.0
10:30 12.5 79.0 1005.6 0.0 E 0.0 0.0
10:35 13.0 82.0 1005.7 0.0 E 0.0 0.0
10:40 13.5 82.0 1005.6 0.0 E 0.0 0.0
10:45 13.4 82.0 1005.6 0.0 ESE 0.0 0.0
10:50 13.2 81.0 1005.5 0.0 SE 0.0 0.0
10:55 12.9 80.0 1005.8 0.0 E 0.0 0.0
11:00 12.6 79.0 1005.7 0.0 ESE 0.0 0.0
11:05 12.2 78.0 1005.7 0.0 E 0.0 0.0
11:10 11.8 76.0 1005.9 0.0 E 0.0 0.0
11:15 11.6 74.0 1005.9 0.0 SE 0.0 0.0
11:20 11.3 74.0 1005.7 0.0 ESE 0.0 0.3
11:25 11.2 72.0 1005.5 0.0 ESE 0.0 0.5
11:30 11.3 71.0 1005.5 0.0 SSW 0.0 0.0
11:35 11.2 71.0 1005.7 0.0 SSW 0.0 0.0
11:40 11.2 70.0 1005.8 0.0 SE 0.0 0.0
11:45 11.3 70.0 1005.6 0.0 E 0.0 0.0
11:50 11.6 69.0 1005.7 0.0 E 0.0 0.0
11:55 11.8 68.0 1005.3 0.0 ESE 0.0 0.0
12:00 12.0 68.0 1005.2 0.0 E 0.0 0.0
12:05 11.9 68.0 1005.4 0.0 SSW 0.0 0.0
12:10 12.0 68.0 1005.4 0.0 ESE 0.0 0.0
12:15 12.1 69.0 1005.6 0.0 E 0.0 0.0
12:20 11.7 69.0 1005.5 0.0 SSW 0.0 0.0
12:25 11.7 69.0 1005.4 0.0 ESE 0.0 0.0
12:30 11.9 69.0 1005.3 0.0 NE 0.0 0.0
12:35 12.0 69.0 1005.3 0.0 E 0.0 0.0
12:40 11.9 70.0 1005.3 0.0 E 0.0 0.0
12:45 11.6 72.0 1005.5 0.0 ESE 0.0 0.0
12:50 11.6 72.0 1005.3 0.0 ESE 0.0 0.0
12:55 11.7 72.0 1005.2 0.0 E 0.0 0.0
13:00 11.8 72.0 1005.4 0.0 E 0.0 0.0
13:05 11.7 73.0 1005.3 0.0 ENE 0.0 0.0
13:10 11.8 73.0 1005.3 0.0 ENE 0.0 0.0
Máxima 14.7 84.0 1006.1 17.7 W 24.1 0.5
Mínima 7.8 67.0 1004.5
Total 0.8